Notices

What's New in latest Release from April 7th, 2021:

- Updated Glossary, including Speed of Maximum Gust, and Total Hourly Precipitation

- Updated national and regional climate services offices contacts and prices information

- Addition of station inventory lists for 1981-2010, 1971-2000, and 1961-1990 Normals.

If you haven't already, please take our survey and provide feedback about our website: https://eccc.sondage-survey.ca/f/LanguageSelection.aspx?s=442ca660-fcf1-47c0-95a9-59707d6fd709

Hourly Data Report for December 04, 2019

SAINT JOHN A
NEW BRUNSWICK
Current Station Operator: NAVCAN

45°18'58.000" N
65°53'24.000" W
108.80 m
8104901
71609
YSJ

Download Data

Hourly Data (December 2019)
Hourly Data Report for December 4, 2019
TIME
LST
Temp Definition
°C
Dew Point Definition
°C
Rel Hum Definition
%
Precip. Amount Definition
mm

Wind Dir Definition
10's deg

Wind Spd Definition
km/h
Visibility Definition
km
Stn Press Definition
kPa
Hmdx Definition


Wind Chill Definition


Weather Definition


00:00 -0.7 -1.6 94   36 31 9.7 97.06   -7 Fog
01:00 -1.2 -2.2 93   34 25 3.2 97.16   -7 Snow
02:00 -1.2 -2.5 91   35 33 16.1 97.22   -8 Snow
03:00 -1.5 -2.6 93   32 26 4.8 97.35   -8 Snow
04:00 -1.6 -2.8 92   32 28 24.1 97.43   -8 Snow
05:00 -2.1 -3.8 89   32 26 24.1 97.50   -9 Cloudy
06:00 -2.0 -3.8 88   29 19 16.1 97.67   -8 Snow
07:00 -2.1 -3.7 89   29 16 24.1 97.83   -7 LegendNANA
08:00 -2.4 -4.4 87   30 19 24.1 97.95   -8 Cloudy
09:00 -2.4 -4.9 83   32 21 24.1 98.02   -8 LegendNANA
10:00 -1.4 -5.0 77   30 22 24.1 98.09   -7 LegendNANA
11:00 -0.6 -5.0 72   28 22 24.1 98.17   -6 Mainly Clear
12:00 -0.2 -6.4 63   28 24 24.1 98.20   -6 LegendNANA
13:00 0.5 -6.1 61   28 11 24.1 98.21     LegendNANA
14:00 1.6 -6.7 54   25 14 24.1 98.23     Mostly Cloudy
15:00 2.1 -6.0 55   27 8 24.1 98.31     LegendNANA
16:00 0.9 -5.8 61   22 4 24.1 98.36     LegendNANA
17:00 -0.3 -5.7 67   22 5 24.1 98.40   -2 Mainly Clear
18:00 -0.5 -5.9 67   25 10 24.1 98.44   -4 LegendNANA
19:00 -0.9 -5.5 71   28 7 24.1 98.44   -3 LegendNANA
20:00 -4.0 -5.9 87   19 4 24.1 98.45   -6 Mostly Cloudy
21:00 -4.2 -5.2 93   6 4 24.1 98.47   -6 LegendNANA
22:00 -3.5 -4.6 92   8 4 24.1 98.45   -5 LegendNANA
23:00 -3.4 -4.5 92   4 7 24.1 98.45   -6 Cloudy

Notes on Data Quality.

Legend

  • E = Estimated
  • M = Missing
  • NA = Not Available*
  • [empty] = Indicates an unobserved value
Date modified: